Terug naar catalogus

STARLINK-34195

ActiefCommunicatieVLEO
NORAD 64142·PAYLOAD·🇺🇸 United States

Gelanceerd May 24, 2025 vanaf Cape Canaveral Space Force Station

Loading…

Volgende Passages (komende 24 uur)

TLE

VersSource: CelesTrak SupGP

Epoch: Sep 15, 2026, 02:40 UTC

1 64142C 25111V   26258.11159722  .00009465  00000+0  34275-3 0  2583
2 64142  43.0003  87.8880 0001471 271.1552 159.9723 15.27578998    12

Volg STARLINK-34195 in realtime met AllMySat

Download on the App Store